CEB891 RPLL-RPVE

Flight info

Callsign CEB891
Flight time 0h 37m
Altitude 25000
Route VERDE2V VERDE W24 TAPER TAPER7B
Aircraft A320/M-SDE3FGHIRWY/LB1

Departure

Time 2026-04-25 12:39
Airport Ninoy Aquino International Airport (RPLL)

Arrival

Time 2026-04-25 13:16
Airport Godofredo P. Ramos Airport (RPVE)
Time Latitude Longitude Altitude Speed Heading
2026-04-25 11:44 14.52377 121.00794 81 ft 0 kts 44°
2026-04-25 12:19 14.52359 121.00777 81 ft 2 kts 44°
2026-04-25 12:19 14.52345 121.00762 82 ft 2 kts 44°
2026-04-25 12:19 14.52334 121.00751 82 ft 2 kts 44°
2026-04-25 12:20 14.52323 121.00741 81 ft 2 kts 44°
2026-04-25 12:20 14.52312 121.00730 82 ft 2 kts 53°
2026-04-25 12:20 14.52308 121.00715 81 ft 2 kts 97°
2026-04-25 12:20 14.52313 121.00703 81 ft 0 kts 130°
2026-04-25 12:21 14.52317 121.00698 81 ft 1 kts 136°
2026-04-25 12:21 14.52319 121.00697 81 ft 0 kts 135°
2026-04-25 12:23 14.52318 121.00697 81 ft 0 kts 136°
2026-04-25 12:23 14.52309 121.00706 81 ft 2 kts 136°
2026-04-25 12:23 14.52286 121.00729 81 ft 6 kts 136°
2026-04-25 12:24 14.52258 121.00758 81 ft 5 kts 135°
2026-04-25 12:24 14.52219 121.00771 81 ft 6 kts 195°
2026-04-25 12:24 14.52171 121.00759 81 ft 7 kts 168°
2026-04-25 12:24 14.52124 121.00794 81 ft 8 kts 136°
2026-04-25 12:25 14.52076 121.00841 81 ft 10 kts 135°
2026-04-25 12:25 14.52023 121.00897 81 ft 11 kts 134°
2026-04-25 12:25 14.51964 121.00957 81 ft 12 kts 135°
2026-04-25 12:25 14.51902 121.01022 81 ft 12 kts 134°
2026-04-25 12:26 14.51837 121.01090 81 ft 13 kts 135°
2026-04-25 12:26 14.51772 121.01158 81 ft 13 kts 135°
2026-04-25 12:26 14.51701 121.01231 81 ft 14 kts 135°
2026-04-25 12:26 14.51625 121.01308 81 ft 16 kts 134°
2026-04-25 12:27 14.51544 121.01392 81 ft 15 kts 136°
2026-04-25 12:27 14.51475 121.01464 81 ft 14 kts 134°
2026-04-25 12:27 14.51407 121.01535 81 ft 13 kts 135°
2026-04-25 12:27 14.51345 121.01600 81 ft 11 kts 134°
2026-04-25 12:28 14.51286 121.01661 81 ft 11 kts 134°
2026-04-25 12:28 14.51228 121.01720 81 ft 11 kts 134°
2026-04-25 12:28 14.51173 121.01777 81 ft 10 kts 135°
2026-04-25 12:28 14.51123 121.01829 81 ft 10 kts 134°
2026-04-25 12:29 14.51072 121.01881 81 ft 10 kts 134°
2026-04-25 12:29 14.51020 121.01923 81 ft 8 kts 179°
2026-04-25 12:29 14.50981 121.01879 81 ft 8 kts 242°
2026-04-25 12:29 14.50949 121.01819 81 ft 10 kts 240°
2026-04-25 12:30 14.50910 121.01749 81 ft 11 kts 240°
2026-04-25 12:30 14.50869 121.01678 81 ft 11 kts 240°
2026-04-25 12:30 14.50831 121.01608 81 ft 11 kts 240°
2026-04-25 12:30 14.50789 121.01533 81 ft 12 kts 240°
2026-04-25 12:31 14.50743 121.01450 81 ft 14 kts 240°
2026-04-25 12:31 14.50690 121.01360 81 ft 15 kts 240°
2026-04-25 12:31 14.50638 121.01264 81 ft 15 kts 241°
2026-04-25 12:31 14.50584 121.01166 81 ft 15 kts 240°
2026-04-25 12:32 14.50528 121.01066 81 ft 16 kts 240°
2026-04-25 12:32 14.50470 121.00964 81 ft 16 kts 239°
2026-04-25 12:32 14.50412 121.00857 81 ft 17 kts 240°
2026-04-25 12:32 14.50357 121.00758 81 ft 15 kts 240°
2026-04-25 12:33 14.50305 121.00663 81 ft 15 kts 240°
2026-04-25 12:33 14.50251 121.00568 81 ft 14 kts 240°
2026-04-25 12:33 14.50203 121.00481 81 ft 11 kts 240°
2026-04-25 12:33 14.50169 121.00419 81 ft 9 kts 240°
2026-04-25 12:34 14.50135 121.00356 81 ft 10 kts 241°
2026-04-25 12:34 14.50096 121.00286 81 ft 11 kts 240°
2026-04-25 12:34 14.50057 121.00218 81 ft 11 kts 239°
2026-04-25 12:34 14.50033 121.00175 81 ft 10 kts 240°
2026-04-25 12:35 14.49985 121.00087 81 ft 10 kts 240°
2026-04-25 12:35 14.49957 121.00037 81 ft 8 kts 240°
2026-04-25 12:35 14.49943 121.00013 81 ft 3 kts 239°
2026-04-25 12:35 14.49925 120.99982 82 ft 6 kts 240°
2026-04-25 12:37 14.49873 120.99966 82 ft 0 kts 150°
2026-04-25 12:37 14.49869 120.99969 82 ft 2 kts 150°
2026-04-25 12:37 14.49838 120.99987 82 ft 7 kts 150°
2026-04-25 12:37 14.49799 121.00026 82 ft 8 kts 95°
2026-04-25 12:38 14.49822 121.00082 82 ft 8 kts 60°
2026-04-25 12:38 14.49850 121.00131 81 ft 0 kts 59°
2026-04-25 12:38 14.49867 121.00163 82 ft 24 kts 61°
2026-04-25 12:39 14.50072 121.00532 82 ft 90 kts 60°
2026-04-25 12:39 14.50477 121.01263 82 ft 145 kts 60°
2026-04-25 12:39 14.51046 121.02277 272 ft 171 kts 62°
2026-04-25 12:39 14.51636 121.03335 845 ft 170 kts 62°
2026-04-25 12:40 14.52199 121.04383 1481 ft 167 kts 62°
2026-04-25 12:40 14.52744 121.05427 2031 ft 167 kts 62°
2026-04-25 12:40 14.53285 121.06478 2554 ft 167 kts 62°
2026-04-25 12:40 14.53828 121.07544 3086 ft 168 kts 62°
2026-04-25 12:41 14.54362 121.08625 3499 ft 176 kts 66°
2026-04-25 12:41 14.54519 121.09912 3781 ft 195 kts 101°
2026-04-25 12:41 14.53805 121.11171 4072 ft 217 kts 135°
2026-04-25 12:41 14.52519 121.12147 4375 ft 239 kts 145°
2026-04-25 12:42 14.51026 121.13096 4780 ft 257 kts 147°
2026-04-25 12:42 14.49973 121.13747 5041 ft 269 kts 147°
2026-04-25 12:42 14.47787 121.15100 5870 ft 279 kts 147°
2026-04-25 12:42 14.46138 121.16121 6609 ft 280 kts 147°
2026-04-25 12:43 14.44450 121.17168 7339 ft 282 kts 147°
2026-04-25 12:43 14.42768 121.18216 8034 ft 285 kts 147°
2026-04-25 12:43 14.38986 121.19260 9314 ft 296 kts 188°
2026-04-25 12:44 14.36943 121.18817 10003 ft 298 kts 193°
2026-04-25 12:44 14.34904 121.18326 10545 ft 306 kts 192°
2026-04-25 12:44 14.30501 121.17467 11131 ft 338 kts 189°
2026-04-25 12:45 14.28081 121.17064 11396 ft 353 kts 189°
2026-04-25 12:45 14.25634 121.16665 11709 ft 364 kts 189°
2026-04-25 12:45 14.20574 121.15764 12790 ft 369 kts 191°
2026-04-25 12:46 14.18027 121.15302 13326 ft 371 kts 191°
2026-04-25 12:46 14.15461 121.14838 13839 ft 374 kts 191°
2026-04-25 12:46 14.12884 121.14373 14322 ft 376 kts 191°
2026-04-25 12:46 14.10278 121.13905 14803 ft 378 kts 191°
2026-04-25 12:47 14.07666 121.13436 15265 ft 381 kts 191°
2026-04-25 12:47 14.05077 121.12972 15709 ft 383 kts 191°
2026-04-25 12:47 14.02421 121.12496 16138 ft 386 kts 191°
2026-04-25 12:47 13.99753 121.12019 16558 ft 388 kts 191°
2026-04-25 12:48 13.97080 121.11540 16956 ft 391 kts 191°
2026-04-25 12:48 13.94388 121.11058 17341 ft 394 kts 191°
2026-04-25 12:48 13.91636 121.10566 17725 ft 396 kts 191°
2026-04-25 12:48 13.88907 121.10078 18107 ft 399 kts 191°
2026-04-25 12:49 13.86166 121.09589 18481 ft 401 kts 191°
2026-04-25 12:49 13.83406 121.09097 18857 ft 402 kts 191°
2026-04-25 12:49 13.80640 121.08603 19230 ft 404 kts 191°
2026-04-25 12:49 13.77868 121.08108 19592 ft 405 kts 191°
2026-04-25 12:50 13.75065 121.07606 19959 ft 407 kts 191°
2026-04-25 12:50 13.72236 121.07137 20309 ft 409 kts 186°
2026-04-25 12:50 13.69384 121.07370 20556 ft 415 kts 164°
2026-04-25 12:50 13.66771 121.08568 20919 ft 417 kts 153°
2026-04-25 12:51 13.64180 121.10015 21259 ft 419 kts 153°
2026-04-25 12:51 13.61602 121.11397 21561 ft 421 kts 155°
2026-04-25 12:51 13.58953 121.12734 21866 ft 423 kts 156°
2026-04-25 12:51 13.56292 121.14111 22169 ft 425 kts 152°
2026-04-25 12:52 13.53730 121.15618 22473 ft 427 kts 151°
2026-04-25 12:52 13.51141 121.17211 22772 ft 429 kts 150°
2026-04-25 12:52 13.49441 121.18250 22963 ft 430 kts 151°
2026-04-25 12:52 13.46845 121.19800 23256 ft 432 kts 152°
2026-04-25 12:53 13.43335 121.21838 23636 ft 433 kts 152°
2026-04-25 12:53 13.40703 121.23347 23914 ft 435 kts 152°
2026-04-25 12:53 13.38033 121.24873 24174 ft 437 kts 152°
2026-04-25 12:53 13.35346 121.26408 24425 ft 439 kts 152°
2026-04-25 12:54 13.32664 121.27943 24672 ft 441 kts 152°
2026-04-25 12:54 13.29979 121.29479 24889 ft 444 kts 152°
2026-04-25 12:54 13.27238 121.31046 24924 ft 451 kts 152°
2026-04-25 12:54 13.24458 121.32635 24928 ft 458 kts 152°
2026-04-25 12:55 13.21648 121.34241 24930 ft 465 kts 152°
2026-04-25 12:55 13.19771 121.35315 24932 ft 469 kts 152°
2026-04-25 12:55 13.15926 121.37514 24933 ft 475 kts 152°
2026-04-25 12:55 13.13013 121.39180 24938 ft 476 kts 152°
2026-04-25 12:56 13.10120 121.40835 24942 ft 477 kts 152°
2026-04-25 12:56 13.07209 121.42499 24895 ft 474 kts 152°
2026-04-25 12:56 13.04371 121.44123 24646 ft 459 kts 152°
2026-04-25 12:56 13.01612 121.45700 24249 ft 448 kts 152°
2026-04-25 12:57 12.98898 121.47250 23646 ft 444 kts 152°
2026-04-25 12:57 12.96218 121.48779 23019 ft 440 kts 152°
2026-04-25 12:57 12.93556 121.50298 22409 ft 436 kts 152°
2026-04-25 12:57 12.90912 121.51807 21829 ft 433 kts 152°
2026-04-25 12:58 12.88271 121.53313 21238 ft 429 kts 151°
2026-04-25 12:58 12.85650 121.54809 20657 ft 426 kts 151°
2026-04-25 12:58 12.83093 121.56267 20093 ft 422 kts 151°
2026-04-25 12:58 12.80531 121.57728 19537 ft 418 kts 151°
2026-04-25 12:59 12.77980 121.59183 18993 ft 415 kts 151°
2026-04-25 12:59 12.75477 121.60610 18447 ft 411 kts 151°
2026-04-25 12:59 12.72958 121.62045 17874 ft 409 kts 150°
2026-04-25 12:59 12.70504 121.63442 17306 ft 407 kts 150°
2026-04-25 13:00 12.68031 121.64851 16740 ft 405 kts 150°
2026-04-25 13:00 12.66371 121.65798 16368 ft 403 kts 151°
2026-04-25 13:00 12.63122 121.67651 15664 ft 400 kts 151°
2026-04-25 13:00 12.60681 121.69041 15147 ft 396 kts 151°
2026-04-25 13:01 12.58292 121.70401 14650 ft 393 kts 151°
2026-04-25 13:01 12.55891 121.71768 14148 ft 390 kts 151°
2026-04-25 13:01 12.54318 121.72664 13820 ft 387 kts 151°
2026-04-25 13:01 12.52767 121.73546 13491 ft 385 kts 151°
2026-04-25 13:02 12.47103 121.76767 12228 ft 378 kts 151°
2026-04-25 13:02 12.44067 121.78490 11536 ft 374 kts 150°
2026-04-25 13:02 12.41803 121.79777 11084 ft 368 kts 150°
2026-04-25 13:03 12.39591 121.81034 10823 ft 359 kts 150°
2026-04-25 13:03 12.37357 121.82202 10515 ft 358 kts 155°
2026-04-25 13:03 12.35050 121.83164 10207 ft 356 kts 160°
2026-04-25 13:03 12.32678 121.83933 9900 ft 355 kts 162°
2026-04-25 13:04 12.30321 121.84635 9592 ft 351 kts 163°
2026-04-25 13:04 12.28000 121.85318 9283 ft 343 kts 163°
2026-04-25 13:04 12.25717 121.85991 9032 ft 333 kts 162°
2026-04-25 13:04 12.23518 121.86640 8792 ft 319 kts 162°
2026-04-25 13:05 12.21446 121.87253 8550 ft 302 kts 162°
2026-04-25 13:05 12.19465 121.87842 8308 ft 290 kts 161°
2026-04-25 13:05 12.17551 121.88412 8072 ft 286 kts 161°
2026-04-25 13:05 12.15643 121.88982 7835 ft 284 kts 161°
2026-04-25 13:06 12.13725 121.89555 7595 ft 283 kts 161°
2026-04-25 13:06 12.11823 121.90121 7356 ft 282 kts 161°
2026-04-25 13:06 12.09924 121.90686 7116 ft 280 kts 160°
2026-04-25 13:06 12.08062 121.91239 6880 ft 279 kts 160°
2026-04-25 13:07 12.06150 121.91691 6630 ft 282 kts 174°
2026-04-25 13:07 12.04202 121.91276 6384 ft 291 kts 205°
2026-04-25 13:07 12.02646 121.89930 6151 ft 298 kts 231°
2026-04-25 13:07 12.01468 121.88181 5919 ft 298 kts 234°
2026-04-25 13:08 12.00330 121.86441 5684 ft 297 kts 234°
2026-04-25 13:08 11.99154 121.84669 5441 ft 296 kts 233°
2026-04-25 13:08 11.97982 121.82934 5201 ft 295 kts 233°
2026-04-25 13:08 11.96814 121.81223 4963 ft 294 kts 233°
2026-04-25 13:09 11.95641 121.79515 4725 ft 294 kts 233°
2026-04-25 13:09 11.94461 121.77800 4486 ft 293 kts 233°
2026-04-25 13:09 11.93294 121.76104 4244 ft 287 kts 233°
2026-04-25 13:09 11.92074 121.74534 4039 ft 278 kts 217°
2026-04-25 13:10 11.90396 121.73730 3859 ft 257 kts 180°
2026-04-25 13:10 11.88722 121.73969 3801 ft 231 kts 150°
2026-04-25 13:10 11.87314 121.74722 3798 ft 220 kts 145°
2026-04-25 13:10 11.86011 121.75462 3783 ft 206 kts 145°
2026-04-25 13:11 11.84772 121.76167 3783 ft 203 kts 139°
2026-04-25 13:11 11.83948 121.77195 3806 ft 176 kts 104°
2026-04-25 13:11 11.83902 121.78369 3640 ft 161 kts 75°
2026-04-25 13:11 11.84357 121.79392 3438 ft 154 kts 63°
2026-04-25 13:12 11.84849 121.80334 3236 ft 147 kts 63°
2026-04-25 13:12 11.85311 121.81230 3046 ft 141 kts 63°
2026-04-25 13:12 11.85766 121.82123 2870 ft 141 kts 63°
2026-04-25 13:12 11.86067 121.82715 2777 ft 142 kts 64°
2026-04-25 13:13 11.86667 121.83902 2513 ft 140 kts 64°
2026-04-25 13:13 11.87114 121.84789 2265 ft 140 kts 63°
2026-04-25 13:13 11.87558 121.85671 2048 ft 139 kts 64°
2026-04-25 13:13 11.88000 121.86550 1846 ft 139 kts 64°
2026-04-25 13:14 11.88443 121.87433 1658 ft 138 kts 64°
2026-04-25 13:14 11.88878 121.88298 1470 ft 138 kts 63°
2026-04-25 13:14 11.89315 121.89168 1285 ft 137 kts 63°
2026-04-25 13:14 11.89748 121.90028 1116 ft 137 kts 63°
2026-04-25 13:15 11.90185 121.90900 929 ft 136 kts 63°
2026-04-25 13:15 11.90614 121.91753 746 ft 136 kts 63°
2026-04-25 13:15 11.91053 121.92613 565 ft 135 kts 63°
2026-04-25 13:15 11.91488 121.93457 388 ft 135 kts 65°
2026-04-25 13:16 11.91909 121.94321 194 ft 133 kts 62°
2026-04-25 13:16 11.92327 121.95147 29 ft 128 kts 63°
2026-04-25 13:16 11.92674 121.95834 19 ft 72 kts 63°
2026-04-25 13:16 11.92774 121.96035 19 ft 11 kts 63°
2026-04-25 13:17 11.92799 121.96085 19 ft 3 kts 64°
2026-04-25 13:17 11.92810 121.96110 19 ft 4 kts 63°
2026-04-25 13:17 11.92830 121.96148 19 ft 7 kts 62°
2026-04-25 13:17 11.92863 121.96210 19 ft 11 kts 61°
2026-04-25 13:18 11.92906 121.96294 19 ft 14 kts 64°
2026-04-25 13:18 11.92952 121.96386 19 ft 13 kts 63°
2026-04-25 13:18 11.92953 121.96455 19 ft 10 kts 140°
2026-04-25 13:18 11.92886 121.96491 19 ft 11 kts 153°
2026-04-25 13:19 11.92816 121.96523 19 ft 10 kts 172°
2026-04-25 13:19 11.92767 121.96474 19 ft 11 kts 245°
2026-04-25 13:19 11.92741 121.96420 19 ft 7 kts 242°
2026-04-25 13:19 11.92734 121.96407 19 ft 5 kts 242°
2026-04-25 13:20 11.92697 121.96337 19 ft 8 kts 243°
2026-04-25 13:20 11.92666 121.96275 19 ft 10 kts 243°
2026-04-25 13:20 11.92628 121.96207 19 ft 10 kts 222°
2026-04-25 13:20 11.92572 121.96214 19 ft 8 kts 152°
2026-04-25 13:21 11.92535 121.96236 19 ft 3 kts 120°
2026-04-25 13:21 11.92542 121.96263 19 ft 4 kts 64°
2026-04-25 13:21 11.92554 121.96287 19 ft 1 kts 63°
2026-04-25 13:21 11.92555 121.96290 19 ft 0 kts 63°